Location: Moscow
(55.7500°N, 37.5830°E)
Time: 11:02:25
(UTC+03:00)

Vanguard 3 - Pass Details

Date: 07 December 2021
Orbit: 508 x 3260 km, 33.3° (Epoch: 19 January)

Event Time Altitude Azimuth Distance (km) Brightness Sun altitude
Rises 08:06:05 0° 265° (W) 7,204 11.5 -5.1°
Reaches altitude 10° 08:12:43 10° 253° (WSW) 6,013 11.2 -4.3°
Maximum altitude 08:24:34 22° 213° (SSW) 4,410 11.0 -3.0°
Drops below altitude 10° 08:33:47 10° 169° (S) 4,544 11.8 -1.9°
Sets 08:37:51 0° 155° (SSE) 5,107 12.6 -1.5°
